Location: Tel Aviv
(32.0670°N, 34.7670°E)
Time: 14:06:59
(UTC+02:00)

Envisat - Pass Details

Date: 04 December 2021
Orbit: 764 x 766 km, 98.2° (Epoch: 20 January)

Event Time Altitude Azimuth Distance (km) Brightness Sun altitude
Rises 17:04:48 0° 206° (SSW) 3,216 7.1 -6.4°
Reaches altitude 10° 17:07:55 10° 227° (SW) 2,295 6.8 -7.0°
Maximum altitude 17:11:05 17° 266° (W) 1,876 6.3 -7.6°
Drops below altitude 10° 17:14:18 10° 305° (NW) 2,304 6.0 -8.3°
Sets 17:17:27 0° 326° (NW) 3,235 6.4 -8.9°
